logo tempoitalia

Diretta Meteo Shymkent, Kazakhstanlunedì 31 agosto ore 12:00

Mappa
Sereno 28 °C Nuvoloso 24 Ore: T.min 22 T.max 37
Ponente Ovest/Nord-Ovest Km/h 18 Punto di rugiada: 11 °C Umidità: 34% Visibilità: 10 Km
Il sole sorge alle: 05:45 Il sole tramonta alle: 18:57
31 Agosto 2026 12:00 tempo osservato: Nuvoloso Nuvoloso 28 34 1011 vento: Nord O/NO 18
31 Agosto 2026 11:30 tempo osservato: Nuvoloso Nuvoloso 29 32 1011 vento: Nord O/NO 14.4
31 Agosto 2026 11:00 tempo osservato: Poco Nuvoloso Poco Nuvoloso 27 34 1011 vento: Nord NO 14.4
31 Agosto 2026 10:30 tempo osservato: Sereno Sereno 27 34 1010 vento: Nord O/NO 10.8
31 Agosto 2026 10:00 tempo osservato: Sereno Sereno 26 36 1010 vento: Nord O/NO 18
31 Agosto 2026 09:30 tempo osservato: Sereno Sereno 26 36 1010 vento: Nord O/NO 14.4
31 Agosto 2026 09:00 tempo osservato: Sereno Sereno 26 34 1009 vento: Nord O/SO 14.4
31 Agosto 2026 08:30 tempo osservato: Sereno Sereno 25 38 1009 vento: Nord SO 10.8
31 Agosto 2026 08:00 tempo osservato: Sereno Sereno 23 40 1009 vento: Nord O 14.4
31 Agosto 2026 07:30 tempo osservato: Sereno Sereno 24 38 1008 vento: Nord N 7.2
31 Agosto 2026 07:00 tempo osservato: Sereno Sereno 22 43 1008 vento: Nord SE 14.4
31 Agosto 2026 06:30 tempo osservato: Sereno Sereno 23 40 1008 vento: Nord N 7.2
31 Agosto 2026 06:00 tempo osservato: Sereno Sereno 23 40 1007 vento: Nord N 7.2
31 Agosto 2026 05:30 tempo osservato: Sereno Sereno 25 36 1007 vento: Nord N 7.2
31 Agosto 2026 05:00 tempo osservato: Sereno Sereno 24 38 1007 vento: Nord N 7.2
31 Agosto 2026 04:30 tempo osservato: Sereno Sereno 25 36 1007 vento: Nord N 0
31 Agosto 2026 04:00 tempo osservato: Sereno Sereno 25 36 1007 vento: Nord O/SO 10.8
31 Agosto 2026 03:30 tempo osservato: Sereno Sereno 26 34 1006 vento: Nord SE 10.8
31 Agosto 2026 03:00 tempo osservato: Sereno Sereno 26 34 1007 vento: Nord SE 14.4
31 Agosto 2026 02:30 tempo osservato: Sereno Sereno 25 38 1007 vento: Nord SE 14.4
31 Agosto 2026 02:00 tempo osservato: Sereno Sereno 27 34 1007 vento: Nord SE 10.8
31 Agosto 2026 01:30 tempo osservato: Sereno Sereno 27 34 1007 vento: Nord E/SE 14.4
31 Agosto 2026 01:00 tempo osservato: Sereno Sereno 27 34 1007 vento: Nord E/SE 10.8
31 Agosto 2026 00:30 tempo osservato: Sereno Sereno 27 34 1008 vento: Nord SE 14.4
31 Agosto 2026 00:00 tempo osservato: Sereno Sereno 28 32 1008 vento: Nord E/SE 14.4
30 Agosto 2026 23:30 tempo osservato: Sereno Sereno 28 32 1008 vento: Nord E/SE 14.4
30 Agosto 2026 23:00 tempo osservato: Sereno Sereno 29 30 1008 vento: Nord SE 18
30 Agosto 2026 22:30 tempo osservato: Sereno Sereno 30 27 1008 vento: Nord N 7.2
30 Agosto 2026 22:00 tempo osservato: Sereno Sereno 30 27 1008 vento: Nord SE 10.8
30 Agosto 2026 21:30 tempo osservato: Sereno Sereno 32 24 1008 vento: Nord N 7.2
30 Agosto 2026 21:00 tempo osservato: Sereno Sereno 33 21 1008 vento: Nord N 7.2
30 Agosto 2026 20:30 tempo osservato: Sereno Sereno 33 24 1008 vento: Nord N 3.6
30 Agosto 2026 20:00 tempo osservato: Sereno Sereno 33 24 1008 vento: Nord N 7.2
30 Agosto 2026 19:30 tempo osservato: Sereno Sereno 35 21 1008 vento: Nord N 7.2
30 Agosto 2026 19:00 tempo osservato: Sereno Sereno 36 19 1008 vento: Nord NO 10.8
30 Agosto 2026 18:30 tempo osservato: Sereno Sereno 37 17 1008 vento: Nord N 7.2
30 Agosto 2026 18:00 tempo osservato: Sereno Sereno 37 18 1008 vento: Nord NO 10.8
30 Agosto 2026 17:30 tempo osservato: Sereno Sereno 37 17 1008 vento: Nord N 7.2
30 Agosto 2026 17:00 tempo osservato: Sereno Sereno 37 15 1008 vento: Nord O/NO 14.4
30 Agosto 2026 16:30 tempo osservato: Sereno Sereno 37 17 1008 vento: Nord O/NO 14.4
30 Agosto 2026 16:00 tempo osservato: Sereno Sereno 37 17 1008 vento: Nord O/NO 14.4
30 Agosto 2026 15:30 tempo osservato: Sereno Sereno 37 17 1009 vento: Nord N 7.2
30 Agosto 2026 15:00 tempo osservato: Sereno Sereno 37 15 1009 vento: Nord O/SO 10.8
30 Agosto 2026 14:30 tempo osservato: Sereno Sereno 37 17 1009 vento: Nord N 7.2
30 Agosto 2026 14:00 tempo osservato: Sereno Sereno 37 17 1009 vento: Nord N 7.2
30 Agosto 2026 13:30 tempo osservato: Sereno Sereno 36 16 1009 vento: Nord N 7.2
30 Agosto 2026 13:00 tempo osservato: Sereno Sereno 36 16 1010 vento: Nord N 7.2